Station PTCR1 - 8452951 - Potter Cove, Prudence Island, RI Image indicating link to RSS feed of recent meteorological observations for station PTCR1


Conditions at PTCR1 as of
(12:00 pm EDT)
1600 GMT on 04/20/2024:
     

Click on the graph icon in the table below to see a time series plot of the last five days of that observation.

5-day plot - Wind Direction Wind Direction (WDIR): SW ( 230 deg true )
5-day plot - Wind Speed Wind Speed (WSPD): 4.1 kts
5-day plot - Wind Gust Wind Gust (GST): 7.0 kts
5-day plot - Atmospheric Pressure Atmospheric Pressure (PRES):29.93 in
5-day plot - Pressure Tendency Pressure Tendency (PTDY):-0.04 in ( Falling )
5-day plot - Air Temperature Air Temperature (ATMP): 48.4 °F
5-day plot - Wind Chill Wind Chill (CHILL): 46.6 °F
5-day plot - Wind Speed at 10 Meters Wind Speed at 10 meters (WSPD10M): 3.9 kts
5-day plot - Wind Speed at 20 Meters Wind Speed at 20 meters (WSPD20M): 3.9 kts
5-day plot -  Wind Speed, Wind Gust and Atmospheric Pressure Combined plot of Wind Speed, Gust, and Air Pressure
NOS Water Level Observation Network Water Level
Previous observations
TIME
(EDT)
5-day plot - Wind Direction
WDIR
 
5-day plot - Wind Speed
WSPD
kts
5-day plot - Wind Gust
GST
kts
5-day plot - Wave Height
WVHT
ft
5-day plot - Dominant Wave Period
DPD
sec
5-day plot - Average Wave Period
APD
sec
5-day plot - Mean Wave Direction
MWD
 
5-day plot - Atmospheric Pressure
PRES
in
5-day plot - Pressure Tendency
PTDY
in
5-day plot - Air Temperature
ATMP
°F
5-day plot - Water Temperature
WTMP
°F
5-day plot - Dew Point
DEWP
°F
5-day plot - Salinity
SAL
psu
5-day plot - Visibility
VIS
nmi
5-day plot - Tide (above MLLW)
TIDE
ft
2024-04-20 11:54 am SW 4.1 6.0----29.92- 48.2-----
2024-04-20 11:48 am SW 4.1 8.0----29.93- 48.2-----
2024-04-20 11:42 am SW 4.1 7.0----29.93- 48.4-----
2024-04-20 11:36 am SW 4.1 7.0----29.93- 47.8-----
2024-04-20 11:30 amWSW 5.1 7.0----29.94- 47.8-----
2024-04-20 11:24 am SW 4.1 6.0----29.94- 48.0-----
2024-04-20 11:18 am S 1.9 4.1----29.93- 47.7-----
2024-04-20 11:12 am- 0.0 2.9----29.93- 47.8-----
2024-04-20 11:06 am- 0.0 1.9----29.93- 47.5-----
2024-04-20 11:00 am SW 1.9 4.1----29.94-0.05 47.1-----
2024-04-20 10:54 amWSW 2.9 5.1----29.95- 47.3-----
2024-04-20 10:48 am SW 2.9 6.0----29.95- 47.1-----
2024-04-20 10:42 amWSW 4.1 6.0----29.96- 47.1-----
2024-04-20 10:36 amWSW 4.1 6.0----29.97- 47.1-----
2024-04-20 10:30 amWSW 4.1 7.0----29.96- 47.1-----
2024-04-20 10:24 am SW 1.9 5.1----29.96- 47.1-----
2024-04-20 10:18 am SW 1.9 6.0----29.96- 47.3-----
2024-04-20 10:12 am SW 2.9 6.0----29.96- 47.3-----
2024-04-20 10:06 am SW 4.1 6.0----29.96- 47.3-----
2024-04-20 10:00 amWSW 4.1 6.0----29.96-0.03 47.1-----
2024-04-20 09:54 am SW 2.9 6.0----29.97- 46.9-----
2024-04-20 09:48 am SW 4.1 7.0----29.98-------
2024-04-20 09:42 am SW 5.1 8.0----29.98-------
2024-04-20 09:36 am SW 4.1 11.1----29.99-------
2024-04-20 09:30 am SW 5.1 7.0----29.99- 46.2-----
2024-04-20 09:24 am SW 2.9 7.0----29.97- 46.2-----
2024-04-20 09:18 am SW 2.9 8.9----29.97- 46.0-----
2024-04-20 09:12 amSSW 4.1 8.9----29.97- 46.0-----
2024-04-20 09:06 am SW 2.9 5.1----29.98- 46.0-----
2024-04-20 09:00 amSSW 2.9 6.0----29.97-0.01 46.0-----
2024-04-20 08:54 amWSW 4.1 6.0----29.98- 46.0-----
2024-04-20 08:48 amWSW 2.9 5.1----29.98- 46.0-----
2024-04-20 08:42 amSSW 2.9 6.0----29.98- 45.9-----
2024-04-20 08:36 am SW 4.1 7.0----29.98- 45.9-----
2024-04-20 08:30 am SW 5.1 8.0----29.98- 46.0-----
2024-04-20 08:24 am SW 5.1 8.9----29.98- 46.0-----
2024-04-20 08:18 am SW 4.1 7.0----29.99- 46.0-----
2024-04-20 08:12 amSSW 2.9 7.0----29.98- 46.0-----
2024-04-20 08:06 am SW 5.1 8.0----29.99- 46.0-----
2024-04-20 08:00 am SW 4.1 7.0----29.99-0.02 46.0-----
2024-04-20 07:54 amSSW 2.9 5.1----29.99- 46.0-----
2024-04-20 07:48 am SW 4.1 6.0----29.99- 46.0-----
2024-04-20 07:42 amSSW 4.1 8.0----29.99- 46.0-----
2024-04-20 07:36 amSSW 4.1 7.0----29.99- 46.2-----
2024-04-20 07:30 am SW 2.9 6.0----29.99- 46.2-----
2024-04-20 07:24 am SW 2.9 6.0----29.99- 46.2-----
2024-04-20 07:18 am SW 4.1 6.0----29.99- 46.2-----
2024-04-20 07:12 am SW 2.9 6.0----29.99- 46.2-----
2024-04-20 07:06 amWSW 2.9 6.0----29.99- 46.2-----
2024-04-20 07:00 am SW 4.1 6.0----29.99-0.03 46.2-----
2024-04-20 06:54 am SW 4.1 5.1----29.99- 46.4-----
2024-04-20 06:48 amWSW 2.9 5.1----29.99- 46.4-----
2024-04-20 06:42 amWSW 2.9 5.1----29.99- 46.4-----
2024-04-20 06:36 amWSW 4.1 5.1----29.99- 46.4-----
2024-04-20 06:30 am SW 1.0 4.1----29.99-------
2024-04-20 06:24 amSSW 1.9 4.1----29.98-------
2024-04-20 06:18 amWSW 2.9 4.1----29.99- 46.0-----
2024-04-20 06:12 am SW 1.9 4.1----29.99- 46.0-----
2024-04-20 06:06 am- 0.0 5.1----29.98- 46.0-----
2024-04-20 06:00 am SW 1.9 4.1----29.98-0.04------
2024-04-20 05:54 am S 1.0 4.1----29.98-------
2024-04-20 05:48 am S 1.9 4.1----29.98- 46.0-----
2024-04-20 05:42 amSSW 1.9 4.1----29.99- 46.2-----
2024-04-20 05:36 am S 1.9 4.1----29.99- 46.2-----
2024-04-20 05:30 am S 2.9 6.0----29.99- 46.2-----
2024-04-20 05:24 am SW 2.9 6.0----30.00- 46.4-----
2024-04-20 05:18 amSSW 2.9 5.1----30.00- 46.2-----
2024-04-20 05:12 am SW 2.9 5.1----30.01- 46.2-----
2024-04-20 05:06 am SW 1.9 6.0----30.01- 46.4-----
2024-04-20 05:00 am SW 2.9 5.1----30.01-0.04 46.2-----
2024-04-20 04:54 amWSW 2.9 6.0----30.01- 46.2-----
2024-04-20 04:48 am SW 1.9 4.1----30.01- 46.2-----
2024-04-20 04:42 am SW 2.9 6.0----30.01- 46.2-----
2024-04-20 04:36 am SW 1.9 5.1----30.01- 46.2-----
2024-04-20 04:30 am SW 2.9 5.1----30.01-------
2024-04-20 04:24 am SW 1.9 5.1----30.01-------
2024-04-20 04:18 am SW 1.9 5.1----30.02- 46.2-----
2024-04-20 04:12 am SW 1.9 4.1----30.02- 46.0-----
2024-04-20 04:06 amWSW 2.9 5.1----30.02- 46.0-----
2024-04-20 04:00 am-------30.02-0.04------
2024-04-20 03:54 am-------30.02-------
2024-04-20 03:48 am SW 2.9 4.1----30.03- 46.0-----
2024-04-20 03:42 am SW 1.9 4.1----30.03- 46.0-----
2024-04-20 03:36 am SW 1.9 4.1----30.03- 45.9-----
2024-04-20 03:30 amWSW 1.9 4.1----30.03- 45.9-----
2024-04-20 03:24 amWSW 2.9 5.1----30.03- 45.9-----
2024-04-20 03:18 amWSW 2.9 5.1----30.03- 45.9-----
2024-04-20 03:12 amWSW 4.1 6.0----30.03- 45.9-----
2024-04-20 03:06 am SW 5.1 6.0----30.03- 45.9-----
2024-04-20 03:00 amWSW 1.9 6.0----30.03-0.05 45.9-----
2024-04-20 02:54 am SW 4.1 6.0----30.03- 45.9-----
2024-04-20 02:48 amWSW 2.9 7.0----30.03- 46.0-----
2024-04-20 02:42 am SW 4.1 8.0----30.03- 46.0-----
2024-04-20 02:36 am SW 4.1 7.0----30.03- 46.0-----
2024-04-20 02:30 am SW 4.1 7.0----30.03- 46.0-----
2024-04-20 02:24 am SW 5.1 8.0----30.03- 46.0-----
2024-04-20 02:18 am SW 4.1 8.9----30.03- 46.0-----
2024-04-20 02:12 am SW 5.1 7.0----30.04- 46.0-----
2024-04-20 02:06 am SW 4.1 8.0----30.04- 46.0-----
2024-04-20 02:00 am SW 4.1 8.9----30.04-0.05 46.0-----
2024-04-20 01:54 am SW 6.0 8.9----30.05- 46.0-----
2024-04-20 01:48 am SW 4.1 7.0----30.05- 46.2-----
2024-04-20 01:42 am SW 6.0 8.0----30.05- 46.2-----
2024-04-20 01:36 am SW 5.1 8.9----30.05- 46.2-----
2024-04-20 01:30 am SW 6.0 8.0----30.06- 46.2-----
2024-04-20 01:24 amWSW 5.1 8.9----30.06- 46.2-----
2024-04-20 01:18 am SW 5.1 8.9----30.06- 46.2-----
2024-04-20 01:12 am SW 4.1 9.9----30.06- 46.6-----
2024-04-20 01:06 amWSW 5.1 9.9----30.06- 46.6-----
2024-04-20 01:00 am SW 5.1 8.0----30.06-0.06 46.8-----
2024-04-20 12:54 am SW 4.1 7.0----30.07- 46.8-----
2024-04-20 12:48 am SW 4.1 7.0----30.06- 46.6-----
2024-04-20 12:42 am SW 1.9 7.0----30.07- 46.6-----
2024-04-20 12:36 amSSW 4.1 7.0----30.07- 46.4-----
2024-04-20 12:30 amSSW 2.9 8.0----30.07- 46.2-----
2024-04-20 12:24 amSSW 4.1 8.0----30.07- 46.2-----
2024-04-20 12:18 amSSW 4.1 6.0----30.07- 46.0-----
2024-04-20 12:12 amSSW 1.9 8.0----30.07- 46.0-----
2024-04-20 12:06 amSSW 2.9 8.9----30.08- 46.0-----
2024-04-20 12:00 am SW 4.1 8.0----30.08-0.05 45.9-----
2024-04-19 11:54 pm SW 4.1 7.0----30.09- 45.9-----
2024-04-19 11:48 pmWSW 5.1 7.0----30.09- 45.9-----
2024-04-19 11:42 pmWSW 4.1 7.0----30.09- 45.9-----
2024-04-19 11:36 pm SW 4.1 8.0----30.09- 46.0-----
2024-04-19 11:30 pm SW 2.9 7.0----30.09- 45.9-----
2024-04-19 11:24 pmSSW 4.1 7.0----30.09- 45.7-----
2024-04-19 11:18 pm SW 2.9 6.0----30.09- 45.5-----
2024-04-19 11:12 pmSSW 1.9 5.1----30.09- 45.3-----
2024-04-19 11:06 pmSSW 1.9 5.1----30.10- 45.3-----
2024-04-19 11:00 pmSSW 2.9 6.0----30.09-0.02 45.1-----
2024-04-19 10:54 pmSSW 1.9 5.1----30.10- 45.1-----
2024-04-19 10:48 pmSSW 1.9 4.1----30.11- 45.3-----
2024-04-19 10:42 pm SW 1.9 4.1----30.11- 45.3-----
2024-04-19 10:36 pm S 2.9 5.1----30.11- 45.5-----
2024-04-19 10:30 pmSSW 1.9 5.1----30.11- 45.5-----
2024-04-19 10:24 pm SW 1.9 5.1----30.12- 45.5-----
2024-04-19 10:18 pmSSW 2.9 6.0----30.12- 45.5-----
2024-04-19 10:12 pm SW 1.9 6.0----30.12- 45.5-----
2024-04-19 10:06 pm SW 2.9 5.1----30.12- 45.3-----
2024-04-19 10:00 pm SW 1.9 4.1----30.13+0.00 45.3-----
2024-04-19 09:54 pmSSW 1.9 5.1----30.12- 45.5-----
2024-04-19 09:48 pm SW 2.9 5.1----30.12- 45.5-----
2024-04-19 09:42 pm SW 2.9 6.0----30.13- 45.7-----
2024-04-19 09:36 pmSSW 2.9 6.0----30.12- 45.7-----
2024-04-19 09:30 pm SW 1.9 6.0----30.12- 45.7-----
2024-04-19 09:24 pm S 1.9 5.1----30.12- 45.9-----
2024-04-19 09:18 pm S 2.9 6.0----30.12- 45.9-----
2024-04-19 09:12 pmSSW 2.9 6.0----30.12- 45.9-----
2024-04-19 09:06 pmSSW 1.9 5.1----30.12- 46.0-----
2024-04-19 09:00 pm S 4.1 8.0----30.13+0.00 46.2-----
2024-04-19 08:54 pm S 4.1 8.0----30.12- 46.4-----
2024-04-19 08:48 pm SW 4.1 8.0----30.12- 46.4-----
2024-04-19 08:42 pmSSW 4.1 7.0----30.13- 46.6-----
2024-04-19 08:36 pm SW 4.1 6.0----30.13- 46.6-----
2024-04-19 08:30 pm SW 2.9 6.0----30.12- 46.6-----
2024-04-19 08:24 pmSSW 2.9 5.1----30.12- 46.6-----
2024-04-19 08:18 pm SW 1.9 5.1----30.12- 46.6-----
2024-04-19 08:12 pmSSW 4.1 6.0----30.12- 46.6-----
2024-04-19 08:06 pm S 2.9 7.0----30.12- 46.8-----
2024-04-19 08:00 pm S 5.1 8.9----30.11-0.01 46.8-----
2024-04-19 07:54 pmSSW 2.9 7.0----30.11- 46.9-----
2024-04-19 07:48 pmSSW 2.9 7.0----30.11- 46.9-----
2024-04-19 07:42 pm S 1.9 6.0----30.11- 47.1-----
2024-04-19 07:36 pm S 4.1 8.9----30.11- 47.1-----
2024-04-19 07:30 pmSSW 2.9 7.0----30.11- 47.3-----
2024-04-19 07:24 pmSSW 4.1 7.0----30.11- 47.5-----
2024-04-19 07:00 pm SW 6.0 8.9----30.12-0.01 47.8-----
2024-04-19 06:54 pmSSW 5.1 8.9----30.13- 48.0-----
2024-04-19 06:48 pm SW 4.1 8.9----30.13- 48.2-----
2024-04-19 06:42 pm SW 4.1 8.0----30.13- 48.6-----
2024-04-19 06:36 pmSSW 2.9 8.0----30.13- 48.7-----
2024-04-19 06:30 pmSSW 2.9 9.9----30.13- 48.9-----
2024-04-19 06:24 pmSSW 4.1 9.9----30.12- 48.9-----
2024-04-19 06:18 pm S 5.1 11.1----30.12- 48.9-----
2024-04-19 06:12 pm S 6.0 12.0----30.12- 48.9-----
2024-04-19 06:06 pm S 5.1 8.9----30.12- 49.5-----
2024-04-19 06:00 pm S 4.1 7.0----30.12-0.03 49.8-----
2024-04-19 05:54 pm S 4.1 8.9----30.12- 50.0-----
2024-04-19 05:48 pm S 5.1 13.0----30.12- 50.2-----
2024-04-19 05:42 pm S 5.1 8.9----30.13- 50.9-----
2024-04-19 05:36 pm S 5.1 12.0----30.13- 51.8-----
2024-04-19 05:30 pm S 5.1 11.1----30.13- 52.9-----
2024-04-19 05:24 pm S 5.1 8.9----30.12- 52.7-----
2024-04-19 05:18 pm S 5.1 9.9----30.13- 52.0-----
2024-04-19 05:12 pm S 4.1 8.9----30.13- 52.0-----
2024-04-19 05:06 pmSSE 6.0 14.0----30.13- 51.8-----
2024-04-19 05:00 pmSSE 6.0 15.0----30.12-0.02 52.3-----
2024-04-19 04:54 pm S 4.1 11.1----30.13- 52.7-----
2024-04-19 04:48 pm S 6.0 15.0----30.12- 53.2-----
2024-04-19 04:42 pm S 5.1 13.0----30.12- 52.7-----
2024-04-19 04:36 pm S 5.1 12.0----30.12- 52.0-----
2024-04-19 04:30 pm S 6.0 11.1----30.13- 52.0-----
2024-04-19 04:24 pm S 5.1 9.9----30.14- 52.0-----
2024-04-19 04:18 pm S 5.1 9.9----30.14- 52.5-----
2024-04-19 04:12 pm S 5.1 9.9----30.14- 53.2-----
2024-04-19 04:06 pm S 2.9 9.9----30.14- 54.1-----
2024-04-19 04:00 pm S 4.1 8.0----30.14-0.03 54.5-----
2024-04-19 03:54 pmSSE 5.1 8.9----30.14- 54.3-----
2024-04-19 03:48 pm S 4.1 11.1----30.14- 54.0-----
2024-04-19 03:42 pmSSW 4.1 8.0----30.14- 53.8-----
2024-04-19 03:36 pm S 5.1 8.9----30.14- 53.2-----
2024-04-19 03:30 pm S 4.1 8.9----30.15- 53.1-----
2024-04-19 03:24 pm S 5.1 9.9----30.14- 53.6-----
2024-04-19 03:18 pm S 5.1 8.0----30.15- 54.0-----
2024-04-19 03:12 pm S 4.1 8.9----30.15- 55.0-----
2024-04-19 03:06 pm S 6.0 9.9----30.15- 54.9-----
2024-04-19 03:00 pm S 7.0 11.1----30.15-0.04 54.1-----
2024-04-19 02:54 pm S 5.1 9.9----30.15- 53.8-----
2024-04-19 02:48 pm S 6.0 9.9----30.16- 54.0-----
2024-04-19 02:42 pm S 4.1 8.0----30.16- 54.7-----
2024-04-19 02:36 pm S 5.1 11.1----30.16- 54.9-----
2024-04-19 02:30 pm S 6.0 9.9----30.15- 55.0-----
2024-04-19 02:24 pm SE 4.1 9.9----30.15- 55.9-----
2024-04-19 02:18 pm S 2.9 11.1----30.15- 56.8-----
2024-04-19 02:12 pmSSE 2.9 11.1----30.15- 55.6-----
2024-04-19 02:06 pm S 5.1 8.9----30.15- 55.2-----
2024-04-19 02:00 pm SE 5.1 9.9----30.15-0.05 54.9-----
2024-04-19 01:54 pm S 6.0 11.1----30.15- 54.7-----
2024-04-19 01:48 pm S 5.1 12.0----30.15- 54.9-----
2024-04-19 01:42 pm S 5.1 11.1----30.16- 54.9-----
2024-04-19 01:36 pmSSW 5.1 8.9----30.16- 54.7-----
2024-04-19 01:30 pmSSW 4.1 8.9----30.17- 56.3-----
2024-04-19 01:24 pmSSW 5.1 12.0----30.18- 55.8-----
2024-04-19 01:18 pmSSW 5.1 11.1----30.17- 55.8-----
2024-04-19 01:12 pm S 4.1 8.9----30.17- 56.5-----
2024-04-19 01:06 pmSSE 2.9 14.0----30.17- 56.5-----
2024-04-19 01:00 pm S 7.0 11.1----30.17-0.04 55.9-----
2024-04-19 12:54 pmSSE 6.0 9.9----30.17- 56.3-----
2024-04-19 12:48 pmSSE 4.1 8.9----30.17- 56.3-----
2024-04-19 12:42 pmSSE 2.9 8.9----30.17- 56.8-----
2024-04-19 12:36 pmSSE 4.1 8.0----30.17- 56.8-----
2024-04-19 12:30 pm S 4.1 9.9----30.18- 56.3-----
2024-04-19 12:24 pm S 6.0 11.1----30.18- 55.6-----
2024-04-19 12:18 pm S 6.0 8.9----30.19- 55.8-----
2024-04-19 12:12 pm S 4.1 8.0----30.19- 56.1-----
2024-04-19 12:06 pmSSE 1.9 9.9----30.19- 55.6-----
2024-04-19 12:00 pmSSE 4.1 8.0----30.19-0.03 55.0-----
2024-04-19 11:54 am S 4.1 9.9----30.19- 55.6-----